Hourly Data Report for October 13, 2018

QUALICUM BEACH AIRPORT
BRITISH COLUMBIA
Current Station Operator: ECCC - MSC

49°20'14.000" N
124°23'38.000" W
58.20 m
1026562
71766
VOQ

Download Data

Hourly Data (October 2018)
Hourly Data Report for October 13, 2018
TIME
LST
Temp Definition
°C
Dew Point Definition
°C
Rel Hum Definition
%
Precip. Amount Definition
mm

Wind Dir Definition
10's deg

Wind Spd Definition
km/h
Visibility Definition
km
Stn Press Definition
kPa
Hmdx Definition


Wind Chill Definition


Weather Definition


00:00 8.6 4.8 77 0.0 28 5   101.67     LegendNANA
01:00 7.0 4.8 86 0.0 26 5   101.74     LegendNANA
02:00 6.9 5.1 88 0.0 26 4   101.75     LegendNANA
03:00 5.8 4.6 92 0.0 24 4   101.78     LegendNANA
04:00 6.2 4.2 87 0.0 27 4   101.83     LegendNANA
05:00 8.4 5.0 79 0.0 28 7   101.85     LegendNANA
06:00 5.5 4.4 92 0.0 25 3   101.89     LegendNANA
07:00 5.4 4.3 92 0.0 25 6   101.93     LegendNANA
08:00 9.0 5.1 77 0.0 28 5   101.96     LegendNANA
09:00 11.1 6.4 73 0.0 31 8   102.03     LegendNANA
10:00 11.9 6.5 70 0.0 30 13   102.05     LegendNANA
11:00 13.0 6.2 63 0.0 32 9   102.05     LegendNANA
12:00 13.6 6.0 60 0.0 32 9   102.06     LegendNANA
13:00 14.6 5.2 53 0.0 34 6   102.02     LegendNANA
14:00 14.1 5.1 55 0.0 2 5   102.01     LegendNANA
15:00 14.6 5.4 54 0.0 34 5   101.99     LegendNANA
16:00 14.8 5.5 53 0.0 4 5   101.97     LegendNANA
17:00 13.6 5.7 59 0.0 0 1   101.97     LegendNANA
18:00 8.9 5.7 80 0.0 26 2   102.01     LegendNANA
19:00 7.5 5.4 87 0.0 0 1   102.02     LegendNANA
20:00 6.7 4.4 85 0.0 27 1   102.03     LegendNANA
21:00 5.1 3.2 88 0.0 0 1   102.08     LegendNANA
22:00 4.5 3.0 90 0.0 23 2   102.10     LegendNANA
23:00 4.1 2.6 90 0.0 26 1   102.13     LegendNANA

Notes on Data Quality.

Legend

  • E = Estimated
  • M = Missing
  • NA = Not Available*
  • [empty] = Indicates an unobserved value
Date modified: